Quad City International Airport (MLI)


Airport Diagram
Current Weather/Forecast (VFR Conditions)
METAR KMLI 300652Z AUTO 29004KT 10SM SCT046 SCT095 BKN120 03/M01 A3016 RMK AO2 SLP217 T00331006
TAF KMLI 300520Z 3006/3106 33005KT P6SM BKN080 FM302100 11005KT P6SM SCT120

All Charts
General
Chart Name Download
AIRPORT DIAGRAM
TAKEOFF MINIMUMS
ALTERNATE MINIMUMS
HOT SPOT

Approaches
Chart Name Download
ILS OR LOC RWY 09
ILS OR LOC RWY 27
RNAV (GPS) RWY 09
RNAV (GPS) RWY 13
RNAV (GPS) RWY 27
RNAV (GPS) RWY 31